| time (UTC) | temp F | wind direction | speed MPH | gust MPH | rain 1hr in | rain 24hr in | rain mn in | humidity % | barometer mb |
| 20260903211545 | 83 | 144 | 8.0 | 16.0 | 0.00 | 1.20 | 0.00 | 82 | 1012.1 |
| 20260903211050 | 83 | 140 | 9.0 | 16.0 | 0.00 | 1.20 | 0.00 | 82 | 1012.1 |
| 20260903210122 | 83 | 115 | 11.0 | 16.0 | 0.00 | 1.20 | 0.00 | 82 | 1012.2 |
| 20260903205601 | 83 | 155 | 12.0 | 17.0 | 0.00 | 1.20 | 0.00 | 83 | 1012.3 |
| 20260903204628 | 83 | 141 | 7.0 | 16.0 | 0.00 | 1.20 | 0.00 | 82 | 1012.2 |
| 20260903204119 | 84 | 160 | 9.0 | 15.0 | 0.00 | 1.20 | 0.00 | 81 | 1012.0 |
| 20260903203630 | 83 | 156 | 9.0 | 14.0 | 0.00 | 1.20 | 0.00 | 81 | 1012.1 |
| 20260903203051 | 83 | 150 | 7.0 | 13.0 | 0.00 | 1.20 | 0.00 | 80 | 1012.0 |
| 20260903202603 | 82 | 150 | 8.0 | 11.0 | 0.00 | 1.20 | 0.00 | 79 | 1012.0 |
| 20260903201603 | 82 | 111 | 7.0 | 13.0 | 0.00 | 1.20 | 0.00 | 80 | 1012.1 |
| 20260903201108 | 81 | 146 | 9.0 | 14.0 | 0.00 | 1.20 | 0.00 | 80 | 1012.2 |
| 20260903200126 | 82 | 150 | 8.0 | 19.0 | 0.00 | 1.20 | 0.00 | 78 | 1012.4 |
| 20260903195642 | 82 | 130 | 12.0 | 19.0 | 0.00 | 1.20 | 0.00 | 77 | 1012.6 |
| 20260903195132 | 82 | 135 | 8.0 | 15.0 | 0.00 | 1.20 | 0.00 | 79 | 1012.7 |
| 20260903194552 | 83 | 136 | 7.0 | 15.0 | 0.00 | 1.20 | 0.00 | 80 | 1012.7 |
| 20260903194104 | 84 | 135 | 5.0 | 19.0 | 0.00 | 1.20 | 0.00 | 82 | 1012.6 |
| 20260903193105 | 85 | 73 | 12.0 | 21.0 | 0.00 | 1.20 | 0.00 | 82 | 1012.5 |
| 20260903192617 | 87 | 76 | 11.0 | 20.0 | 0.00 | 1.20 | 0.00 | 79 | 1012.5 |
| 20260903192122 | 87 | 75 | 13.0 | 18.0 | 0.00 | 1.20 | 0.00 | 79 | 1012.4 |
| 20260903191547 | 87 | 76 | 11.0 | 18.0 | 0.00 | 1.20 | 0.00 | 79 | 1012.4 |
| 20260903191103 | 88 | 71 | 13.0 | 18.0 | 0.00 | 1.20 | 0.00 | 79 | 1012.4 |
| 20260903190124 | 89 | 74 | 10.0 | 14.0 | 0.00 | 1.20 | 0.00 | 78 | 1012.4 |
| 20260903185629 | 89 | 51 | 4.0 | 12.0 | 0.00 | 1.20 | 0.00 | 78 | 1012.4 |
| 20260903185115 | 89 | 24 | 7.0 | 12.0 | 0.00 | 1.20 | 0.00 | 78 | 1012.3 |
| 20260903184546 | 89 | 44 | 6.0 | 12.0 | 0.00 | 1.20 | 0.00 | 78 | 1012.5 |
| 20260903184051 | 89 | 28 | 4.0 | 11.0 | 0.00 | 1.20 | 0.00 | 78 | 1012.6 |
| 20260903183120 | 90 | 59 | 9.0 | 12.0 | 0.00 | 1.20 | 0.00 | 76 | 1012.5 |
| 20260903182604 | 91 | 69 | 5.0 | 9.0 | 0.00 | 1.20 | 0.00 | 75 | 1012.4 |
| 20260903182115 | 90 | 340 | 3.0 | 8.0 | 0.00 | 1.20 | 0.00 | 72 | 1012.5 |
| 20260903181540 | 90 | 355 | 3.0 | 6.0 | 0.00 | 1.20 | 0.00 | 73 | 1012.6 |
| 20260903181154 | 90 | 287 | 3.0 | 8.0 | 0.00 | 1.20 | 0.00 | 72 | 1012.6 |
| 20260903180545 | 90 | 239 | 3.0 | 8.0 | 0.00 | 1.20 | 0.00 | 73 | 1012.9 |
| 20260903180151 | 90 | 258 | 3.0 | 6.0 | 0.00 | 1.20 | 0.00 | 76 | 1013.0 |
| 20260903175620 | 89 | 26 | 0.0 | 5.0 | 0.00 | 1.20 | 0.00 | 78 | 1013.1 |
| 20260903175133 | 89 | 26 | 2.0 | 8.0 | 0.00 | 1.20 | 0.00 | 78 | 1013.1 |
| 20260903174552 | 89 | 35 | 3.0 | 11.0 | 0.00 | 1.20 | 0.00 | 79 | 1013.2 |
| 20260903174037 | 89 | 34 | 4.0 | 9.0 | 0.00 | 1.20 | 0.00 | 79 | 1013.2 |
| 20260903173629 | 88 | 51 | 5.0 | 9.0 | 0.00 | 1.20 | 0.00 | 80 | 1013.3 |
| 20260903173055 | 88 | 59 | 3.0 | 8.0 | 0.00 | 1.20 | 0.00 | 81 | 1013.4 |
| 20260903172539 | 88 | 54 | 4.0 | 8.0 | 0.00 | 1.20 | 0.00 | 81 | 1013.6 |
| 20260903171613 | 88 | 51 | 1.0 | 9.0 | 0.00 | 1.20 | 0.00 | 81 | 1013.8 |
| 20260903171056 | 87 | 78 | 2.0 | 9.0 | 0.00 | 1.20 | 0.00 | 82 | 1013.9 |
| 20260903170054 | 87 | 71 | 2.0 | 11.0 | 0.00 | 1.20 | 0.00 | 82 | 1013.8 |
| 20260903165605 | 87 | 84 | 5.0 | 10.0 | 0.00 | 1.20 | 0.00 | 83 | 1013.7 |
| 20260903164622 | 87 | 66 | 7.0 | 10.0 | 0.00 | 1.20 | 0.00 | 82 | 1013.7 |
| 20260903164122 | 87 | 69 | 5.0 | 9.0 | 0.00 | 1.20 | 0.00 | 82 | 1013.8 |
| 20260903163632 | 88 | 76 | 3.0 | 8.0 | 0.00 | 1.20 | 0.00 | 81 | 1013.8 |
| 20260903163037 | 88 | 221 | 4.0 | 10.0 | 0.00 | 1.20 | 0.00 | 76 | 1013.7 |
| 20260903162545 | 88 | 184 | 7.0 | 14.0 | 0.00 | 1.20 | 0.00 | 76 | 1013.8 |
| 20260903161614 | 87 | 161 | 6.0 | 13.0 | 0.00 | 1.20 | 0.00 | 78 | 1013.8 |
| 20260903161119 | 87 | 215 | 8.0 | 18.0 | 0.00 | 1.20 | 0.00 | 77 | 1013.8 |
| 20260903160630 | 87 | 192 | 13.0 | 18.0 | 0.00 | 1.20 | 0.00 | 77 | 1013.6 |
| 20260903160050 | 87 | 184 | 9.0 | 13.0 | 0.00 | 1.20 | 0.00 | 78 | 1013.7 |
| 20260903155601 | 87 | 224 | 8.0 | 12.0 | 0.00 | 1.20 | 0.00 | 81 | 1013.7 |
| 20260903154624 | 86 | 209 | 10.0 | 15.0 | 0.00 | 1.20 | 0.00 | 81 | 1013.8 |
| 20260903154039 | 86 | 200 | 8.0 | 14.0 | 0.00 | 1.20 | 0.00 | 82 | 1013.7 |
| 20260903153544 | 85 | 189 | 11.0 | 13.0 | 0.00 | 1.20 | 0.00 | 83 | 1013.7 |
| 20260903153155 | 85 | 173 | 8.0 | 12.0 | 0.00 | 1.20 | 0.00 | 85 | 1013.8 |
| 20260903152544 | 85 | 184 | 8.0 | 13.0 | 0.00 | 1.20 | 0.00 | 86 | 1013.8 |
| 20260903151606 | 84 | 178 | 10.0 | 14.0 | 0.00 | 1.20 | 0.00 | 86 | 1013.8 |
| 20260903151112 | 84 | 161 | 5.0 | 14.0 | 0.00 | 1.20 | 0.00 | 87 | 1013.7 |
| 20260903150141 | 84 | 176 | 9.0 | 13.0 | 0.00 | 1.20 | 0.00 | 88 | 1013.6 |
| 20260903145625 | 84 | 193 | 7.0 | 14.0 | 0.00 | 1.20 | 0.00 | 88 | 1013.7 |
| 20260903145134 | 83 | 205 | 10.0 | 13.0 | 0.00 | 1.20 | 0.00 | 89 | 1013.5 |
| 20260903144545 | 83 | 196 | 6.0 | 11.0 | 0.00 | 1.20 | 0.00 | 90 | 1013.4 |
| 20260903144048 | 83 | 197 | 8.0 | 11.0 | 0.00 | 1.20 | 0.00 | 90 | 1013.4 |
| 20260903143111 | 83 | 198 | 6.0 | 14.0 | 0.00 | 1.20 | 0.00 | 91 | 1013.5 |
| 20260903142602 | 82 | 219 | 8.0 | 10.0 | 0.00 | 1.20 | 0.00 | 91 | 1013.5 |
| 20260903141604 | 82 | 186 | 5.0 | 10.0 | 0.00 | 1.20 | 0.00 | 92 | 1013.5 |
| 20260903141108 | 82 | 180 | 4.0 | 8.0 | 0.00 | 1.20 | 0.00 | 93 | 1013.4 |
| 20260903140619 | 82 | 160 | 4.0 | 8.0 | 0.00 | 1.20 | 0.00 | 93 | 1013.5 |
| 20260903140050 | 82 | 188 | 5.0 | 9.0 | 0.00 | 1.20 | 0.00 | 93 | 1013.4 |
| 20260903135554 | 82 | 191 | 5.0 | 8.0 | 0.00 | 1.20 | 0.00 | 93 | 1013.4 |
| 20260903134556 | 81 | 190 | 3.0 | 6.0 | 0.00 | 1.20 | 0.00 | 93 | 1013.3 |
| 20260903134108 | 81 | 192 | 1.0 | 7.0 | 0.00 | 1.20 | 0.00 | 93 | 1013.4 |
| 20260903133609 | 81 | 155 | 4.0 | 9.0 | 0.00 | 1.20 | 0.00 | 93 | 1013.2 |
| 20260903133040 | 81 | 186 | 5.0 | 9.0 | 0.00 | 1.20 | 0.00 | 93 | 1013.2 |
| 20260903132548 | 81 | 188 | 6.0 | 9.0 | 0.00 | 1.20 | 0.00 | 93 | 1013.1 |
| 20260903131610 | 81 | 188 | 5.0 | 7.0 | 0.00 | 1.20 | 0.00 | 94 | 1013.1 |
| 20260903131055 | 80 | 191 | 5.0 | 9.0 | 0.00 | 1.20 | 0.00 | 94 | 1013.0 |
| 20260903130604 | 80 | 198 | 6.0 | 9.0 | 0.00 | 1.20 | 0.00 | 94 | 1012.9 |
| 20260903130151 | 80 | 186 | 6.0 | 8.0 | 0.00 | 1.20 | 0.00 | 94 | 1012.9 |
| 20260903125538 | 80 | 196 | 6.0 | 10.0 | 0.00 | 1.20 | 0.00 | 94 | 1012.8 |
| 20260903125150 | 80 | 201 | 6.0 | 9.0 | 0.00 | 1.20 | 0.00 | 94 | 1012.7 |
| 20260903124553 | 80 | 197 | 7.0 | 9.0 | 0.00 | 1.20 | 0.00 | 94 | 1012.6 |
| 20260903124050 | 80 | 200 | 6.0 | 8.0 | 0.00 | 1.20 | 0.00 | 94 | 1012.7 |
| 20260903123049 | 80 | 178 | 4.0 | 6.0 | 0.00 | 1.20 | 0.00 | 94 | 1012.7 |
| 20260903122601 | 80 | 186 | 4.0 | 7.0 | 0.00 | 1.20 | 0.00 | 94 | 1012.7 |
| 20260903121542 | 80 | 182 | 4.0 | 6.0 | 0.00 | 1.20 | 0.00 | 94 | 1012.6 |
| 20260903121046 | 80 | 165 | 3.0 | 7.0 | 0.00 | 1.20 | 0.00 | 94 | 1012.5 |
| 20260903120116 | 80 | 171 | 3.0 | 7.0 | 0.00 | 1.20 | 0.00 | 94 | 1012.6 |
| 20260903115621 | 80 | 166 | 5.0 | 7.0 | 0.00 | 1.20 | 0.00 | 94 | 1012.5 |
| 20260903115132 | 80 | 188 | 5.0 | 7.0 | 0.00 | 1.20 | 0.00 | 94 | 1012.5 |
| 20260903114553 | 80 | 170 | 4.0 | 6.0 | 0.00 | 1.20 | 0.00 | 94 | 1012.4 |
| 20260903114045 | 80 | 161 | 5.0 | 6.0 | 0.00 | 1.20 | 0.00 | 94 | 1012.4 |
| 20260903113106 | 80 | 178 | 5.0 | 8.0 | 0.00 | 1.20 | 0.00 | 94 | 1012.4 |
| 20260903112612 | 80 | 178 | 5.0 | 8.0 | 0.00 | 1.20 | 0.00 | 94 | 1012.3 |
| 20260903112122 | 80 | 166 | 6.0 | 8.0 | 0.00 | 1.20 | 0.00 | 94 | 1012.4 |
| 20260903111554 | 80 | 171 | 5.0 | 6.0 | 0.00 | 1.20 | 0.00 | 94 | 1012.3 |
| 20260903111055 | 80 | 169 | 4.0 | 6.0 | 0.00 | 1.20 | 0.00 | 94 | 1012.3 |
| 20260903110124 | 80 | 165 | 6.0 | 8.0 | 0.00 | 1.20 | 0.00 | 94 | 1012.3 |
| 20260903105608 | 80 | 183 | 4.0 | 5.0 | 0.00 | 1.20 | 0.00 | 94 | 1012.3 |
| 20260903104628 | 80 | 184 | 3.0 | 6.0 | 0.00 | 1.20 | 0.00 | 94 | 1012.2 |
| 20260903104039 | 80 | 186 | 4.0 | 8.0 | 0.00 | 1.20 | 0.00 | 94 | 1012.2 |
| 20260903103106 | 80 | 180 | 4.0 | 8.0 | 0.00 | 1.20 | 0.00 | 94 | 1012.2 |
| 20260903102618 | 80 | 190 | 4.0 | 7.0 | 0.00 | 1.20 | 0.00 | 94 | 1012.2 |
| 20260903102122 | 80 | 187 | 5.0 | 9.0 | 0.00 | 1.20 | 0.00 | 94 | 1012.2 |
| 20260903101550 | 80 | 181 | 4.0 | 7.0 | 0.00 | 1.20 | 0.00 | 94 | 1012.2 |
| 20260903101102 | 80 | 185 | 5.0 | 7.0 | 0.00 | 1.20 | 0.00 | 94 | 1012.3 |
| 20260903100103 | 80 | 182 | 4.0 | 7.0 | 0.00 | 1.20 | 0.00 | 94 | 1012.3 |
| 20260903095608 | 80 | 187 | 6.0 | 7.0 | 0.00 | 1.20 | 0.00 | 94 | 1012.2 |
| 20260903095120 | 80 | 178 | 3.0 | 5.0 | 0.00 | 1.20 | 0.00 | 94 | 1012.3 |
| 20260903094042 | 80 | 179 | 2.0 | 4.0 | 0.00 | 1.20 | 0.00 | 94 | 1012.4 |
| 20260903093105 | 80 | 178 | 2.0 | 5.0 | 0.00 | 1.20 | 0.00 | 94 | 1012.4 |
| 20260903092617 | 80 | 179 | 2.0 | 5.0 | 0.00 | 1.20 | 0.00 | 93 | 1012.4 |
| 20260903091618 | 80 | 168 | 4.0 | 9.0 | 0.00 | 1.20 | 0.00 | 93 | 1012.4 |
| 20260903091130 | 80 | 168 | 6.0 | 9.0 | 0.00 | 1.20 | 0.00 | 93 | 1012.4 |
| 20260903090635 | 80 | 157 | 5.0 | 7.0 | 0.00 | 1.20 | 0.00 | 93 | 1012.4 |
| 20260903090105 | 80 | 171 | 4.0 | 6.0 | 0.00 | 1.20 | 0.00 | 93 | 1012.4 |
| 20260903085614 | 80 | 180 | 4.0 | 6.0 | 0.00 | 1.20 | 0.00 | 93 | 1012.3 |
| 20260903084553 | 80 | 182 | 4.0 | 7.0 | 0.00 | 1.20 | 0.00 | 93 | 1012.3 |
| 20260903084058 | 80 | 182 | 5.0 | 8.0 | 0.00 | 1.20 | 0.00 | 93 | 1012.2 |
| 20260903083057 | 80 | 179 | 4.0 | 8.0 | 0.00 | 1.20 | 0.00 | 93 | 1012.2 |
| 20260903082609 | 80 | 182 | 5.0 | 9.0 | 0.00 | 1.20 | 0.00 | 93 | 1012.2 |
| 20260903082113 | 80 | 182 | 5.0 | 9.0 | 0.00 | 1.20 | 0.00 | 93 | 1012.2 |
| 20260903081544 | 80 | 157 | 6.0 | 9.0 | 0.00 | 1.20 | 0.00 | 93 | 1012.2 |
| 20260903081055 | 80 | 169 | 6.0 | 9.0 | 0.00 | 1.20 | 0.00 | 93 | 1012.2 |
| 20260903080118 | 80 | 159 | 6.0 | 9.0 | 0.00 | 1.20 | 0.00 | 92 | 1012.1 |
| 20260903075608 | 80 | 188 | 6.0 | 10.0 | 0.00 | 1.20 | 0.00 | 92 | 1012.1 |
| 20260903075107 | 80 | 167 | 8.0 | 11.0 | 0.00 | 1.20 | 0.00 | 92 | 1012.0 |
| 20260903074538 | 80 | 180 | 8.0 | 11.0 | 0.00 | 1.20 | 0.00 | 92 | 1012.0 |
| 20260903074044 | 80 | 173 | 8.0 | 12.0 | 0.00 | 1.20 | 0.00 | 92 | 1012.0 |
| 20260903073113 | 80 | 170 | 8.0 | 10.0 | 0.00 | 1.20 | 0.00 | 92 | 1011.9 |
| 20260903072616 | 80 | 194 | 7.0 | 10.0 | 0.00 | 1.20 | 0.00 | 92 | 1011.9 |
| 20260903072132 | 80 | 180 | 8.0 | 12.0 | 0.00 | 1.20 | 0.00 | 92 | 1011.8 |
| 20260903071552 | 80 | 194 | 7.0 | 12.0 | 0.00 | 1.20 | 0.00 | 91 | 1011.9 |
| 20260903071103 | 80 | 179 | 8.0 | 12.0 | 0.00 | 1.20 | 0.00 | 91 | 1011.9 |
| 20260903070105 | 81 | 191 | 9.0 | 14.0 | 0.00 | 1.20 | 0.00 | 91 | 1011.9 |
| 20260903065554 | 81 | 169 | 11.0 | 16.0 | 0.00 | 1.20 | 0.00 | 91 | 1012.0 |
| 20260903065044 | 81 | 163 | 11.0 | 17.0 | 0.00 | 1.20 | 0.00 | 91 | 1012.0 |
| 20260903064537 | 81 | 168 | 12.0 | 17.0 | 0.00 | 1.20 | 0.00 | 91 | 1012.1 |
| 20260903064048 | 81 | 162 | 9.0 | 14.0 | 0.00 | 1.20 | 0.00 | 91 | 1012.1 |
| 20260903063558 | 81 | 170 | 9.0 | 13.0 | 0.00 | 1.20 | 0.00 | 91 | 1012.1 |
| 20260903063050 | 80 | 178 | 9.0 | 14.0 | 0.00 | 1.20 | 0.00 | 92 | 1012.2 |
| 20260903062540 | 80 | 159 | 10.0 | 15.0 | 0.00 | 1.20 | 0.00 | 92 | 1012.2 |
| 20260903062050 | 80 | 180 | 7.0 | 12.0 | 0.00 | 1.20 | 0.00 | 93 | 1012.2 |
| 20260903061543 | 80 | 165 | 7.0 | 14.0 | 0.00 | 1.20 | 0.00 | 93 | 1012.2 |
| 20260903061038 | 80 | 155 | 9.0 | 14.0 | 0.00 | 1.20 | 0.00 | 93 | 1012.2 |
| 20260903060550 | 79 | 149 | 8.0 | 14.0 | 0.00 | 1.20 | 0.00 | 93 | 1012.2 |
| 20260903060043 | 79 | 157 | 9.0 | 12.0 | 0.00 | 1.20 | 0.00 | 93 | 1012.2 |
| 20260903055554 | 79 | 160 | 8.0 | 13.0 | 0.00 | 1.20 | 0.00 | 93 | 1012.2 |
| 20260903055039 | 78 | 161 | 10.0 | 13.0 | 0.00 | 1.20 | 0.00 | 93 | 1012.2 |
| 20260903054535 | 78 | 148 | 7.0 | 13.0 | 0.00 | 1.20 | 0.00 | 93 | 1012.2 |
| 20260903054046 | 78 | 149 | 9.0 | 13.0 | 0.00 | 1.20 | 0.00 | 93 | 1012.2 |
| 20260903053536 | 78 | 141 | 8.0 | 11.0 | 0.00 | 1.20 | 0.00 | 92 | 1012.3 |
| 20260903053055 | 78 | 154 | 7.0 | 12.0 | 0.00 | 1.20 | 0.00 | 92 | 1012.3 |
| 20260903052543 | 78 | 146 | 8.0 | 12.0 | 0.00 | 1.20 | 0.00 | 92 | 1012.3 |
| 20260903052052 | 78 | 126 | 8.0 | 12.0 | 0.00 | 1.20 | 0.00 | 92 | 1012.3 |
| 20260903051551 | 78 | 150 | 8.0 | 12.0 | 0.00 | 1.20 | 0.00 | 92 | 1012.3 |
| 20260903051102 | 78 | 159 | 9.0 | 12.0 | 0.00 | 1.20 | 0.00 | 92 | 1012.2 |
| 20260903050544 | 78 | 154 | 9.0 | 16.0 | 0.00 | 1.20 | 0.00 | 91 | 1012.2 |
| 20260903050104 | 78 | 153 | 11.0 | 16.0 | 0.00 | 1.20 | 0.00 | 91 | 1012.2 |
| 20260903045610 | 78 | 153 | 12.0 | 16.0 | 0.00 | 1.20 | 1.20 | 91 | 1012.3 |
| 20260903045109 | 78 | 133 | 11.0 | 16.0 | 0.00 | 1.20 | 1.20 | 91 | 1012.4 |
| 20260903044541 | 78 | 173 | 12.0 | 15.0 | 0.00 | 1.20 | 1.20 | 91 | 1012.4 |
| 20260903044053 | 78 | 137 | 10.0 | 15.0 | 0.00 | 1.20 | 1.20 | 91 | 1012.4 |
| 20260903043115 | 78 | 147 | 9.0 | 14.0 | 0.01 | 1.20 | 1.20 | 91 | 1012.7 |
| 20260903042558 | 78 | 164 | 10.0 | 16.0 | 0.01 | 1.20 | 1.20 | 91 | 1012.8 |
| 20260903041632 | 78 | 144 | 9.0 | 12.0 | 0.01 | 1.20 | 1.20 | 90 | 1012.8 |
| 20260903041137 | 78 | 153 | 9.0 | 11.0 | 0.01 | 1.20 | 1.20 | 90 | 1012.8 |
| 20260903040629 | 78 | 178 | 8.0 | 10.0 | 0.01 | 1.20 | 1.20 | 89 | 1012.9 |
| 20260903040054 | 78 | 155 | 6.0 | 15.0 | 0.02 | 1.20 | 1.20 | 89 | 1013.0 |
| 20260903035559 | 78 | 176 | 8.0 | 15.0 | 0.02 | 1.20 | 1.20 | 89 | 1013.0 |
| 20260903035151 | 79 | 169 | 7.0 | 12.0 | 0.02 | 1.20 | 1.20 | 88 | 1013.0 |
| 20260903034558 | 79 | 180 | 8.0 | 13.0 | 0.02 | 1.20 | 1.20 | 90 | 1013.2 |
| 20260903034103 | 79 | 190 | 8.0 | 11.0 | 0.02 | 1.20 | 1.20 | 91 | 1013.4 |
| 20260903033127 | 79 | 167 | 8.0 | 11.0 | 0.02 | 1.20 | 1.20 | 93 | 1013.2 |
| 20260903032541 | 79 | 188 | 8.0 | 11.0 | 0.01 | 1.19 | 1.19 | 93 | 1013.2 |
| 20260903032132 | 79 | 185 | 6.0 | 11.0 | 0.01 | 1.19 | 1.19 | 92 | 1013.2 |
| 20260903031551 | 79 | 171 | 7.0 | 11.0 | 0.01 | 1.19 | 1.19 | 92 | 1013.1 |
| 20260903031102 | 79 | 157 | 7.0 | 11.0 | 0.01 | 1.19 | 1.19 | 92 | 1013.3 |
| 20260903030042 | 79 | 139 | 5.0 | 10.0 | 0.01 | 1.19 | 1.19 | 91 | 1013.4 |
| 20260903025552 | 79 | 137 | 6.0 | 10.0 | 0.01 | 1.19 | 1.19 | 91 | 1013.3 |
| 20260903024614 | 80 | 142 | 5.0 | 8.0 | 0.02 | 1.18 | 1.18 | 90 | 1013.0 |
| 20260903024106 | 80 | 134 | 4.0 | 9.0 | 0.15 | 1.18 | 1.18 | 89 | 1012.8 |
| 20260903023125 | 80 | 90 | 3.0 | 5.0 | 0.65 | 1.18 | 1.18 | 87 | 1013.0 |
| 20260903022627 | 81 | 223 | 0.0 | 3.0 | 0.87 | 1.18 | 1.18 | 86 | 1012.8 |
| 20260903022122 | 81 | 224 | 0.0 | 1.0 | 1.14 | 1.18 | 1.18 | 86 | 1012.7 |
| 20260903021549 | 81 | 223 | 0.0 | 1.0 | 1.18 | 1.18 | 1.18 | 85 | 1012.7 |
| 20260903021054 | 81 | 223 | 0.0 | 4.0 | 1.18 | 1.18 | 1.18 | 85 | 1012.5 |
| 20260903020123 | 80 | 223 | 2.0 | 9.0 | 1.18 | 1.18 | 1.18 | 88 | 1012.4 |
| 20260903015605 | 80 | 209 | 4.0 | 12.0 | 1.18 | 1.18 | 1.18 | 88 | 1012.1 |
| 20260903014627 | 80 | 113 | 5.0 | 12.0 | 1.18 | 1.18 | 1.18 | 87 | 1011.8 |
| 20260903014043 | 80 | 91 | 8.0 | 12.0 | 1.09 | 1.09 | 1.09 | 86 | 1012.0 |
| 20260903013100 | 83 | 135 | 2.0 | 10.0 | 0.76 | 0.76 | 0.76 | 79 | 1011.9 |
| 20260903012547 | 85 | 318 | 0.0 | 12.0 | 0.53 | 0.53 | 0.53 | 75 | 1011.7 |
| 20260903011608 | 88 | 337 | 0.0 | 9.0 | 0.04 | 0.04 | 0.04 | 68 | 1011.1 |
| 20260903011120 | 88 | 77 | 3.0 | 11.0 | 0.00 | 0.00 | 0.00 | 67 | 1010.7 |
| 20260903010122 | 89 | 71 | 10.0 | 17.0 | 0.00 | 0.00 | 0.00 | 65 | 1010.4 |
| 20260903005634 | 90 | 66 | 11.0 | 17.0 | 0.00 | 0.00 | 0.00 | 62 | 1010.1 |
| 20260903005113 | 93 | 67 | 7.0 | 14.0 | 0.00 | 0.00 | 0.00 | 57 | 1010.0 |
| 20260903004545 | 95 | 78 | 7.0 | 12.0 | 0.00 | 0.00 | 0.00 | 55 | 1009.9 |
| 20260903004049 | 95 | 188 | 1.0 | 7.0 | 0.00 | 0.00 | 0.00 | 53 | 1009.8 |
| 20260903003119 | 95 | 191 | 4.0 | 9.0 | 0.00 | 0.00 | 0.00 | 53 | 1009.6 |
| 20260903002624 | 96 | 198 | 5.0 | 10.0 | 0.00 | 0.00 | 0.00 | 53 | 1009.7 |
| 20260903001624 | 96 | 194 | 8.0 | 9.0 | 0.00 | 0.00 | 0.00 | 52 | 1009.6 |
| 20260903001036 | 96 | 150 | 6.0 | 9.0 | 0.00 | 0.00 | 0.00 | 51 | 1009.5 |
| 20260903000058 | 97 | 160 | 4.0 | 8.0 | 0.00 | 0.00 | 0.00 | 48 | 1009.5 |
| 20260902235613 | 97 | 200 | 2.0 | 5.0 | 0.00 | 0.00 | 0.00 | 48 | 1009.6 |
| 20260902235108 | 97 | 200 | 3.0 | 5.0 | 0.00 | 0.00 | 0.00 | 48 | 1009.6 |
| 20260902234540 | 98 | 211 | 2.0 | 4.0 | 0.00 | 0.00 | 0.00 | 47 | 1009.7 |
| 20260902234051 | 98 | 213 | 2.0 | 5.0 | 0.00 | 0.00 | 0.00 | 47 | 1009.7 |
| 20260902233113 | 98 | 217 | 1.0 | 5.0 | 0.00 | 0.00 | 0.00 | 48 | 1009.6 |
| 20260902232556 | 98 | 121 | 1.0 | 10.0 | 0.00 | 0.00 | 0.00 | 48 | 1009.6 |
| 20260902231621 | 98 | 200 | 2.0 | 8.0 | 0.00 | 0.00 | 0.00 | 47 | 1009.7 |
| 20260902231044 | 98 | 167 | 2.0 | 5.0 | 0.00 | 0.00 | 0.00 | 48 | 1009.7 |
| 20260902230114 | 98 | 115 | 3.0 | 6.0 | 0.00 | 0.00 | 0.00 | 48 | 1009.7 |
| 20260902225604 | 98 | 124 | 1.0 | 6.0 | 0.00 | 0.00 | 0.00 | 49 | 1009.8 |
| 20260902224625 | 98 | 96 | 2.0 | 6.0 | 0.00 | 0.00 | 0.00 | 49 | 1009.7 |
| 20260902224137 | 97 | 61 | 2.0 | 6.0 | 0.00 | 0.00 | 0.00 | 48 | 1009.7 |
| 20260902223118 | 97 | 347 | 2.0 | 5.0 | 0.00 | 0.00 | 0.00 | 48 | 1009.8 |
| 20260902222630 | 98 | 333 | 2.0 | 7.0 | 0.00 | 0.00 | 0.00 | 48 | 1009.8 |
| 20260902222132 | 98 | 333 | 3.0 | 8.0 | 0.00 | 0.00 | 0.00 | 48 | 1009.8 |
| 20260902221558 | 98 | 207 | 5.0 | 11.0 | 0.00 | 0.00 | 0.00 | 47 | 1009.6 |
| 20260902221103 | 98 | 224 | 4.0 | 13.0 | 0.00 | 0.00 | 0.00 | 47 | 1009.6 |
| 20260902220135 | 98 | 189 | 6.0 | 10.0 | 0.00 | 0.00 | 0.00 | 47 | 1009.6 |
| 20260902215538 | 98 | 202 | 7.0 | 10.0 | 0.00 | 0.00 | 0.00 | 47 | 1009.8 |
| 20260902214557 | 99 | 248 | 7.0 | 11.0 | 0.00 | 0.00 | 0.00 | 47 | 1009.8 |
| 20260902214047 | 99 | 202 | 5.0 | 10.0 | 0.00 | 0.00 | 0.00 | 47 | 1009.8 |
| 20260902213109 | 99 | 229 | 7.0 | 15.0 | 0.00 | 0.00 | 0.00 | 47 | 1009.9 |
| 20260902212620 | 99 | 211 | 8.0 | 15.0 | 0.00 | 0.00 | 0.00 | 47 | 1009.9 |
| 20260902212124 | 99 | 208 | 9.0 | 15.0 | 0.00 | 0.00 | 0.00 | 47 | 1010.0 |